Temp_Advection
nan nan nan nan nan nan nan nan nan nan nan nan nan nan nan nan nan nan nan nan nan nan nan nan nan nan nan nan nan nan nan nan nan nan nan nan nan nan nan nan nan nan nan nan nan nan nan nan nan nan nan nan nan nan nan nan nan nan nan nan nan nan nan nan nan nan nan nan nan
nan 1 0 0 0 0 0 0 0 0 0 0 0 0 -0 -0 -0 -0 -0 -0 -0 -0 -0 -0 -0 -0 0 0 0 -0 -0 -0 -0 -0 -0 -0 -0 -0 -0 -0 -0 -0 0 0 -0 -0 -0 -0 -0 -0 -0 -0 -0 -0 0 1 1 1 0 0 0 0 -0 -0 -0 -0 -0 -0 nan
nan -0 -0 -0 -0 -0 -0 -0 -0 -0 -0 0 0 0 -0 -0 -0 -0 -0 -0 -0 -0 -0 -0 -0 -0 -0 -0 -0 -0 -0 0 0 0 0 0 0 0 0 0 0 0 0 0 0 -0 -0 -0 -0 -0 -0 -0 -0 -0 -0 0 0 1 1 1 1 0 -0 -0 -0 -0 -0 -0 nan
nan -0 -0 -0 -0 -0 -0 -0 -0 -0 -0 -0 -0 -0 0 -0 -0 -0 -0 -0 -0 -0 -0 -0 -0 0 0 0 0 0 0 0 0 0 0 0 0 0 0 0 0 0 0 -0 -0 -0 -0 -0 -0 -0 -0 -0 -0 -0 -0 -0 -0 -0 0 0 1 1 0 -0 -0 0 0 0 nan
nan 0 0 0 0 0 0 0 -0 -0 -0 -0 -0 -0 -0 0 0 0 0 0 0 0 0 -0 -0 -0 -0 -0 -0 -0 -0 -0 -0 -0 -0 -0 -0 -0 -0 -0 -0 -0 -0 -0 -0 -0 -0 -0 -0 -0 -0 -0 -0 -0 -0 -0 -0 -0 -0 -0 0 0 0 0 0 0 0 0 nan
nan 0 0 0 0 0 0 0 0 -0 -0 -0 0 0 0 0 0 0 0 0 0 0 -0 -0 -0 -0 -0 -0 -0 -0 -0 -0 -0 -0 -0 -0 -0 -0 -0 -0 -0 -0 -0 -0 -0 -0 -0 -0 -0 -1 -0 -0 -0 -0 -0 -0 -0 -0 -0 -0 0 0 0 0 0 0 0 0 nan
nan 0 0 0 0 0 -0 -0 0 0 0 0 -0 0 0 0 0 0 0 0 -0 -0 -0 -0 0 0 0 0 0 0 0 0 0 -0 -0 -0 -0 -0 -0 -0 -0 -0 -0 -0 -0 -0 -0 -0 -0 -0 -0 -0 -0 -0 0 -0 -0 -0 -0 -0 0 0 0 0 0 0 0 0 nan
nan -0 -0 -0 0 0 0 0 0 0 -0 -0 -0 -0 -0 -0 -0 -0 -0 -0 -0 -0 0 0 0 0 0 0 0 0 0 0 0 0 0 -0 -0 0 -0 -0 -0 -0 -0 -0 -0 -0 0 -0 -0 -0 -0 -0 -0 0 0 0 -0 -0 -1 -0 -0 0 -0 -0 -0 0 0 0 nan
nan -0 -0 0 0 0 0 0 0 0 -0 -0 -0 -0 -0 -0 -0 -0 0 0 0 0 0 0 0 0 0 -0 0 0 0 0 0 0 0 0 0 0 0 0 0 0 0 0 0 0 0 0 0 0 0 0 0 0 0 0 0 -0 -0 -0 -0 -0 0 -0 -0 -1 -0 -0 nan
nan -0 -0 -0 -0 -0 0 0 0 0 0 0 -0 -0 -0 0 0 0 0 0 0 0 0 -0 -0 -0 -0 -0 0 0 0 0 0 0 0 0 0 0 0 0 0 0 0 0 0 0 0 0 0 0 0 0 0 0 0 0 0 -0 -0 -0 -0 -0 0 0 0 -0 -1 -1 nan
nan -0 -0 -0 -0 -0 0 0 0 0 0 0 0 0 0 0 0 0 0 0 0 -0 -0 -0 -0 0 0 0 0 0 0 0 0 0 0 0 0 0 0 0 0 0 1 1 1 1 0 0 0 0 0 0 0 0 -0 0 -0 -0 -0 -0 -0 -0 -0 0 0 0 -0 -0 nan
nan -0 -0 -0 -0 -0 0 0 0 0 0 0 0 0 0 0 0 0 0 0 -0 -0 -0 -0 -0 -0 -0 -0 -0 -0 -0 0 -0 -0 0 0 0 0 0 0 0 0 0 0 1 1 0 0 0 0 0 0 0 0 0 -0 -0 -0 -0 -0 -0 -0 -0 -0 0 0 0 0 nan
nan 0 -0 -0 0 0 0 0 0 0 -0 -0 -0 -0 -0 -0 -0 -0 -0 -0 -0 -0 -0 -0 -0 -0 -0 -0 -0 -0 -0 -0 -0 -0 -0 -0 -0 -0 -0 -0 -0 -0 0 0 0 0 0 0 0 -0 -0 -0 0 0 0 0 -0 -0 -0 -1 -1 -0 -0 -0 -0 0 0 0 nan
nan 0 0 -0 -0 0 -0 -0 -0 -0 -0 -0 -0 -0 -0 -0 -0 -0 -0 -0 -0 -0 -0 -0 -0 -0 -0 -0 -0 -0 -0 -0 -0 -0 -0 -0 -0 -0 -0 -0 -0 -0 -0 -0 -0 -0 -0 -0 -0 -0 -0 -0 -0 -0 0 0 -0 -0 -0 -0 -1 -1 -0 -0 -0 -0 -0 -0 nan
nan -0 -0 -0 -0 -0 -0 -0 -0 -0 -0 -0 -0 -0 -0 -0 -0 -0 -0 -0 -0 -0 -0 -0 -0 -0 -0 -0 -0 -0 -0 -0 -0 -0 -0 -0 -0 -0 -0 -0 -0 -0 -0 -0 -0 -0 -0 -0 -0 -0 -0 -0 -0 -0 -0 -0 -0 -0 -0 -0 -0 -1 -0 -0 -0 -0 -0 -0 nan
nan -0 -0 -0 -0 -0 -0 -0 -0 -0 -0 -0 -0 -0 -0 -0 -0 -0 -0 -0 -0 -0 -0 -0 -0 -0 -0 -0 -0 -0 -0 -0 -0 -0 -0 -0 -0 -0 -0 -0 -0 -0 -0 -0 -0 -0 0 0 -0 -0 -0 -0 -0 -0 -0 -0 -0 -0 -0 -0 -0 -0 -0 -0 -0 -0 -0 -0 nan
nan -0 -0 -0 -0 -0 -0 -0 -0 -0 -0 -0 -0 -0 -0 -0 -0 -0 -0 -0 -0 -0 -0 -0 -0 -0 -0 -0 -0 -0 -0 -0 -0 -0 -0 -0 -0 -0 -0 -0 -0 -0 -0 -0 -0 -0 -0 0 -0 -0 -0 -0 -0 -0 -0 -0 -0 -0 -0 -0 -0 -0 -0 -0 -0 -1 -1 -0 nan
nan -0 -0 -0 -0 -0 -0 -0 -0 -0 -0 -0 -0 -0 -0 -0 -0 -0 -0 -0 -0 -0 -0 -0 -0 -0 -0 -0 -0 -0 -0 -0 -0 -0 -0 -0 -0 -0 -0 -0 -0 -0 -0 -0 -0 -0 -0 -0 -0 -0 -0 -0 -0 -0 -0 -0 -0 -0 -0 -0 -0 -0 -0 -0 -0 -1 -1 -1 nan
nan 0 0 -0 -0 -0 -0 -0 -0 -0 -0 -0 -0 -0 -0 -0 -0 -0 -0 -0 -0 -0 -0 -0 -0 -0 -0 -0 -0 -0 -0 -0 -0 -0 -0 -0 -0 -0 -0 -0 -0 -0 -0 -0 -0 -0 -0 -0 -0 -0 -0 -0 -0 -0 -0 -0 -0 -0 -0 -0 -0 -0 -0 -0 -0 -0 -0 -1 nan
nan -0 -0 -0 -0 -0 -0 -0 -0 -0 -0 -0 -0 -0 -0 -0 -0 -0 -0 -0 -0 -0 -0 -0 -0 -0 -0 -0 -0 -0 -0 -0 -0 -0 -0 -0 -0 -0 -0 -0 -0 -0 -0 -0 -0 -0 -0 -0 -0 -0 -0 -0 -0 -0 -0 -0 -0 -0 -0 -0 -0 -0 -0 -0 -0 -0 -0 -0 nan
nan -0 -0 -0 -0 -0 -0 -0 -0 -0 -0 -0 -0 -0 -0 -0 -0 -0 -0 -0 -0 -0 -0 -0 -1 -0 -0 -0 -0 -0 -0 -0 -0 -0 -0 -0 -0 -0 -0 -0 -0 -0 -0 -0 -0 -0 -0 -0 -0 -0 -0 -0 0 0 -0 -0 -0 -0 -0 -0 -0 -0 -0 -0 -0 -0 -0 -0 nan
nan -0 -0 -0 -0 -0 -0 -0 -0 -0 -0 -0 -0 -0 -0 -0 -0 -0 -0 -0 -1 -1 -1 -1 -1 -1 -1 -1 -1 -0 -0 -0 -0 -0 -1 -1 -0 -0 -0 -1 -1 -1 -0 -0 -0 -0 -0 -0 -0 -0 -0 -0 -0 -0 -0 0 -0 -0 -0 -0 -0 -0 -0 -0 0 -0 -1 -1 nan
nan -0 -0 -0 -0 -0 -0 -0 -0 -0 -0 -0 -0 -0 -0 -0 -0 -0 -1 -1 -1 -0 -1 -1 -1 -1 -1 -1 -1 -1 -1 -0 -0 -0 -0 -0 -0 -0 -0 -0 -1 -1 -1 -1 -1 -1 -1 -1 -1 -1 -1 -1 -1 -0 -0 -0 -0 -0 -0 -0 -0 -0 -0 -0 -0 -0 -0 -1 nan
nan -0 -0 -0 -0 -0 -0 -0 -0 -0 -0 -0 -0 -0 -0 -0 -0 -0 -0 -0 -0 -0 -0 -0 -0 -0 -0 -0 -1 -1 -1 -1 -0 -0 -0 -0 -0 -0 -0 -0 -0 -0 -0 -0 -0 -1 -1 -1 -1 -1 -1 -1 -1 -1 -1 -1 -0 -0 -1 -1 -1 -1 -1 -1 -0 -0 -0 -0 nan
nan -0 -0 -0 -0 -0 -0 -0 -0 -0 -0 -0 -0 -0 -0 -0 -0 -0 -0 -0 -0 -0 -0 -0 -0 -0 -0 -0 -0 -0 -1 -1 -1 -1 -0 -0 -0 -0 -0 -0 -0 -0 -0 -0 -0 -0 -0 -0 -1 -1 -1 -1 -1 -1 -1 -1 -1 -1 -1 -1 -1 -1 -1 -1 -1 -1 -1 -0 nan
nan -0 -0 -0 -0 -0 -0 -0 -0 -0 -0 -0 -0 -0 -0 -0 -0 -0 -0 -0 -0 -0 -0 -0 -0 -0 -0 -0 -0 -0 -0 -1 -1 -1 -1 -1 -1 -0 -0 -0 -0 -0 -0 -0 -0 -0 -0 0 0 -0 -1 -1 -1 -1 -1 -1 -1 -0 -0 -0 -0 -0 -1 -2 -2 -1 -1 -1 nan
nan -0 -0 -0 -0 -0 -0 -0 -0 -0 -0 -0 -0 -0 -0 -0 -0 -0 -0 -0 -0 -0 -0 -0 -0 -0 -0 -0 -0 -0 -0 -1 -1 -1 -1 -1 -1 -1 -1 -1 -1 -1 -1 -1 -1 -1 -0 -0 0 0 0 -0 -1 -1 -1 -1 -1 -1 -1 -0 -0 -0 -0 -1 -1 -2 -1 -1 nan
nan -0 -0 -0 -0 -0 -0 -0 -0 -0 -0 -0 -0 -0 -0 -0 -0 -0 -0 -0 -0 -0 -0 -0 -0 -0 -0 -0 -0 -0 -1 -1 -1 -1 -1 -1 -1 -1 -1 -1 -1 -1 -1 -1 -1 -1 -1 -1 -1 -0 -0 -0 -1 -1 -1 -2 -2 -1 -1 -1 -1 -1 -0 -0 -1 -1 -1 -1 nan
nan -0 -0 -0 -0 -0 -0 -0 -0 -0 -0 -0 -0 -0 -0 -0 -0 -0 -0 -0 -0 -0 -0 -0 -0 -0 -0 -0 -0 -0 -0 -0 -0 -1 -1 -1 -1 -1 -1 -1 -1 -1 -1 -1 -1 -2 -1 -2 -2 -1 -1 -1 -1 -1 -2 -2 -2 -2 -2 -2 -1 -1 -1 -1 -1 -1 -1 -1 nan
nan -0 -0 -0 -0 -0 -0 -0 -0 -0 -0 -0 -0 -0 -0 -0 -0 -0 -0 -0 -0 -0 -1 -1 -0 -0 -0 -1 -1 -0 -0 -0 -0 -0 -0 -1 -1 -0 -0 -0 -1 -1 -1 -1 -1 -1 -2 -2 -2 -2 -2 -2 -1 -2 -2 -2 -2 -2 -2 -2 -2 -1 -1 -1 -1 -1 -0 -1 nan
nan -0 -0 -0 -0 -0 -0 -0 -0 -0 -0 -0 -0 -0 -1 -1 -1 -1 -1 -1 -1 -1 -1 -1 -1 -1 -1 -1 -1 -1 -1 -1 -1 -1 -1 -1 -1 -1 -0 -0 -0 -0 -0 -0 -0 -1 -1 -1 -1 -1 -1 -1 -1 -1 -2 -2 -2 -2 -2 -2 -1 -1 -1 -1 -1 -1 -1 -0 nan
nan -0 -0 -0 -0 -0 -0 -0 -1 -1 -1 -1 -1 -1 -1 -1 -1 -1 -1 -2 -1 -1 -1 -1 -1 -1 -1 -1 -1 -1 -1 -1 -1 -1 -1 -1 -1 -1 -1 -1 -1 -0 -0 -0 0 -0 -0 -0 -0 -0 -0 -0 -1 -1 -1 -1 -1 -2 -2 -2 -1 -1 -1 -1 -2 -2 -1 -1 nan
nan -0 -0 -0 -1 -1 -1 -1 -1 -1 -1 -1 -1 -1 -1 -1 -1 -1 -1 -1 -2 -2 -2 -2 -2 -2 -2 -2 -2 -1 -1 -1 -1 -1 -1 -1 -1 -1 -1 -1 -1 -1 -0 -0 -0 0 0 0 0 0 0 0 -0 -1 -1 -1 -1 -1 -2 -1 -1 -1 -1 -1 -2 -2 -2 -2 nan
nan -0 -1 -1 -1 -1 -1 -1 -1 -1 -1 -1 -1 -1 -1 -1 -1 -1 -1 -1 -1 -1 -1 -1 -1 -1 -1 -1 -1 -1 -1 -1 -1 -1 -1 -1 -1 -1 -1 -1 -1 -1 -1 -1 -0 -0 -0 0 0 0 0 0 -0 -1 -1 -1 -1 -1 -2 -1 -0 -0 0 -0 -0 -1 -2 -2 nan
nan -1 -1 -1 -1 -1 -1 -1 -1 -1 -1 -1 -1 -1 -1 -1 -1 -1 -1 -1 -1 -1 -1 -1 -1 -1 -1 -1 -1 -1 -1 -1 -1 -1 -1 -1 -1 -1 -1 -1 -1 -0 -0 -0 -0 -0 -0 -0 0 0 0 0 0 -0 -1 -1 -1 -2 -2 -1 -1 -0 0 0 0 -0 -0 -0 nan
nan -1 -1 -1 -1 -1 -1 -1 -1 -1 -1 -1 -1 -1 -1 -1 -1 -1 -1 -1 -1 -1 -1 -0 -0 -0 -1 -1 -0 -1 -1 -1 -1 -1 -1 -1 -1 -1 -1 -1 -1 -0 -0 -0 -0 -0 -0 0 0 1 1 0 0 0 -0 -1 -2 -2 -2 -2 -2 -1 -1 -0 -0 -0 -0 -0 nan
nan -1 -1 -1 -1 -1 -1 -1 -1 -1 -1 -1 -1 -1 -1 -1 -0 -0 -1 -1 -1 -1 -1 -1 -0 -1 -1 -1 -1 -0 -0 -0 -1 -1 -1 -0 -0 -1 -1 -1 -1 -0 -0 -0 -0 -0 0 0 1 1 1 0 -0 -0 -0 -1 -1 -2 -3 -3 -3 -2 -1 -1 -1 -1 -1 -1 nan
nan -1 -1 -1 -1 -1 -1 -1 -1 -1 -1 -1 -0 -0 -1 -0 -0 -0 -0 -1 -1 -1 -1 -1 -1 -1 -1 -1 -1 -0 -0 -0 -0 -0 -0 -0 -0 -1 -1 -1 -1 -1 -0 0 0 0 0 0 1 1 1 0 -0 -0 -1 -2 -2 -2 -2 -3 -3 -3 -2 -2 -2 -2 -1 -1 nan
nan -1 -1 -1 -1 -1 -1 -1 -1 -1 -1 -1 -1 -0 -0 -0 -0 -0 -0 -0 -1 -1 -1 -1 -1 -1 -1 -1 -1 -1 -0 -0 0 -0 -0 -0 -0 -0 -1 -1 -1 -1 -0 0 0 0 0 0 1 1 2 1 1 0 -1 -2 -3 -2 -1 -1 -2 -3 -3 -2 -2 -1 -1 -1 nan
nan -1 -1 -1 -1 -1 -1 -0 -0 -1 -1 -1 -1 -1 -1 -1 -1 -1 -0 -0 -0 -0 -1 -1 -1 -1 -0 -1 -1 -1 -1 -0 -0 0 0 -0 -0 -0 -0 -1 -1 -1 -0 -0 -0 -0 -0 -0 0 1 2 2 1 1 1 -1 -3 -2 -1 -1 -1 -1 -2 -2 -2 -1 -1 -1 nan
nan nan nan nan nan nan nan nan nan nan nan nan nan nan nan nan nan nan nan nan nan nan nan nan nan nan nan nan nan nan nan nan nan nan nan nan nan nan nan nan nan nan nan nan nan nan nan nan nan nan nan nan nan nan nan nan nan nan nan nan nan nan nan nan nan nan nan nan nan
Wind_Speed
16 15 14 13 12 12 13 13 13 13 13 11 10 9 8 7 7 6 6 5 4 3 3 2 1 1 2 2 2 3 3 3 4 4 4 5 6 6 7 7 8 9 9 10 11 12 13 13 14 14 15 16 17 17 18 18 19 19 19 20 20 19 19 19 19 19 18 18 17
15 14 13 12 12 12 11 11 10 10 9 8 7 7 8 8 7 6 6 5 4 3 3 3 3 3 3 2 3 3 3 3 4 4 5 5 6 7 7 8 9 9 10 11 12 13 13 14 14 14 14 15 15 15 16 16 17 17 18 18 18 18 18 18 18 18 17 17 16
14 14 13 12 11 10 9 9 8 8 7 7 7 7 7 7 6 6 6 5 5 6 6 6 5 5 4 4 3 3 4 4 5 5 6 6 7 8 9 9 10 11 12 12 13 14 14 15 15 15 15 15 15 14 14 15 15 16 16 17 17 17 17 17 17 17 16 16 16
16 15 14 13 13 12 12 11 11 10 10 9 9 9 9 8 8 8 7 7 7 6 5 4 4 3 3 3 3 4 5 5 6 7 7 8 9 10 10 11 12 12 13 13 14 14 15 15 15 15 16 15 15 15 15 15 15 15 16 16 17 17 18 18 18 17 17 17 16
16 16 15 14 13 13 12 11 11 10 9 9 9 9 9 8 8 7 6 5 5 4 3 3 3 3 3 4 4 5 5 6 7 8 9 9 10 11 12 12 13 13 14 14 14 15 15 15 15 15 16 16 16 16 15 15 15 15 16 17 17 17 18 19 19 19 18 18 18
14 13 13 12 11 11 10 10 9 8 7 7 7 7 6 6 5 4 3 3 3 3 2 2 3 3 3 4 4 5 6 7 7 8 9 10 11 11 12 13 13 14 14 14 15 15 15 15 15 15 16 16 16 16 16 16 16 16 17 17 17 18 18 19 19 19 19 19 19
12 12 11 10 10 9 9 8 7 7 6 6 5 4 3 3 2 2 2 2 2 2 2 2 3 3 4 5 5 6 7 7 8 9 10 10 11 12 12 13 13 14 14 14 15 15 15 16 15 16 16 17 17 17 17 17 18 18 18 18 18 18 19 19 19 19 19 20 20
12 11 11 10 9 9 8 8 7 6 6 5 4 4 3 2 2 2 1 1 1 1 2 3 4 5 6 7 8 8 9 9 10 11 11 12 12 13 13 13 14 14 14 15 15 15 16 17 17 17 18 19 19 19 19 19 19 19 19 20 20 19 19 19 20 20 20 20 21
12 11 11 10 9 8 8 7 7 6 5 5 4 4 3 2 2 1 0 1 2 3 4 5 6 7 8 9 10 10 11 11 12 12 13 13 14 14 14 15 15 15 16 16 16 17 17 18 19 19 20 20 20 20 20 20 20 20 20 20 20 20 20 20 20 20 21 21 21
12 11 10 10 9 8 8 7 6 5 5 4 4 3 2 2 1 2 3 4 5 6 6 7 8 9 9 10 11 12 13 13 14 14 15 15 16 16 16 17 17 17 17 18 18 19 19 20 20 21 21 22 22 22 22 22 22 22 22 22 22 21 21 20 20 21 21 21 21
11 10 10 9 9 8 7 6 5 4 4 3 2 2 2 2 3 4 5 6 6 7 8 9 10 10 11 12 13 14 14 15 16 16 17 17 18 18 19 19 20 20 20 21 21 21 21 22 22 23 23 23 23 23 23 24 24 24 24 24 23 23 22 21 21 20 21 21 21
10 9 9 8 7 6 5 4 3 3 2 2 2 2 3 4 5 6 7 7 8 9 10 11 12 13 13 14 15 16 17 17 18 19 19 20 20 21 21 22 22 23 23 24 24 24 24 24 25 25 25 25 25 25 25 25 25 26 26 26 25 25 24 23 22 22 21 21 21
8 8 7 6 5 4 3 2 2 2 2 2 3 4 5 6 7 8 8 9 10 11 12 13 14 15 16 17 17 18 19 20 20 21 22 22 23 23 24 24 25 25 25 26 26 26 26 27 27 27 28 27 27 27 27 27 27 27 27 27 27 27 26 25 25 24 23 23 22
6 5 5 4 3 2 2 2 2 3 3 4 5 6 7 8 9 10 11 12 12 13 14 15 16 17 18 19 19 20 21 22 22 23 23 24 25 25 25 26 26 27 27 27 27 27 28 28 28 29 29 29 29 29 28 28 28 28 29 29 29 29 28 27 27 26 25 24 24
4 3 3 2 2 2 2 3 4 5 6 6 7 8 9 10 11 12 13 14 15 16 17 17 18 19 20 20 21 22 23 23 24 24 25 25 26 26 26 27 27 28 28 28 28 28 28 29 29 30 30 30 30 30 30 30 30 30 30 30 30 30 30 29 28 28 27 26 26
3 2 2 2 3 4 4 5 6 7 8 9 10 11 12 12 14 15 15 16 17 18 19 19 20 21 21 22 23 23 24 24 25 25 26 26 26 27 27 27 28 28 29 29 29 29 29 29 30 30 30 31 31 31 31 31 31 31 31 31 31 31 31 31 30 30 29 28 28
2 3 3 4 5 6 7 8 8 9 10 11 12 13 14 15 16 17 18 18 19 20 20 21 21 22 22 23 23 24 24 24 25 25 25 26 26 27 27 27 27 28 28 28 29 29 29 29 29 29 30 30 30 31 31 31 31 31 31 31 31 32 31 31 31 31 30 30 29
4 5 6 7 7 8 9 10 11 12 13 13 14 15 16 17 17 18 19 19 20 20 21 21 21 22 22 22 23 23 23 23 24 24 24 25 25 25 26 26 26 26 27 27 27 27 28 28 28 28 29 29 29 30 30 30 30 30 31 31 31 31 31 31 31 31 30 30 30
6 7 8 9 10 11 11 12 13 14 14 15 16 16 17 17 18 18 19 19 19 20 20 20 20 20 21 21 21 21 22 22 22 22 23 23 23 24 24 24 25 25 25 26 26 26 27 27 27 28 28 28 29 29 29 29 30 30 30 30 31 31 31 31 31 30 30 30 30
9 9 10 11 12 12 13 14 14 15 15 16 16 16 16 17 17 17 18 18 18 18 18 18 19 19 19 19 19 20 20 21 21 21 22 22 23 23 24 24 24 25 25 25 26 26 27 27 27 28 28 29 29 29 29 30 30 30 30 30 30 31 31 30 30 30 30 30 30
10 11 11 12 12 13 13 14 14 14 14 15 15 15 15 16 16 16 16 16 16 17 17 17 17 18 18 18 19 19 19 20 20 21 21 22 22 23 23 24 24 25 25 26 26 26 27 27 28 28 29 29 29 30 30 30 30 30 30 30 30 31 31 31 30 30 31 31 31
10 11 11 11 12 12 12 12 12 12 13 13 13 13 14 14 14 14 15 15 15 16 16 17 17 17 18 18 19 19 19 20 20 21 21 22 22 23 23 24 24 25 25 25 26 26 27 27 28 28 29 29 30 30 30 31 31 31 31 31 31 31 31 31 31 31 31 31 31
9 9 9 9 10 10 10 10 10 10 11 11 11 12 12 12 13 14 14 15 15 16 16 17 17 17 18 18 19 19 19 20 20 20 21 21 22 22 22 23 23 24 24 25 25 26 26 27 28 28 28 29 30 30 30 31 31 31 31 31 32 32 32 31 31 31 32 32 32
7 7 7 8 8 8 8 8 9 9 10 10 11 11 12 12 13 13 14 15 15 16 16 16 17 17 18 18 19 19 19 20 20 20 20 21 21 21 22 22 23 23 23 24 24 25 25 26 27 28 28 29 29 30 30 30 31 31 31 32 32 32 32 32 32 32 32 32 32
6 6 7 7 7 7 8 8 9 9 10 11 11 12 12 13 13 14 14 15 15 16 16 16 17 17 17 18 18 19 19 20 20 21 21 21 21 22 22 22 23 23 23 24 24 24 25 25 26 27 28 29 29 30 30 30 31 31 31 32 32 33 33 33 33 33 33 33 33
7 7 7 8 8 8 9 10 10 11 11 12 12 13 13 14 14 15 15 15 16 16 16 17 17 17 18 18 19 19 20 20 21 21 22 22 22 22 23 23 23 24 24 24 24 24 25 25 26 26 27 28 29 30 30 31 31 31 32 32 32 32 33 33 34 34 33 33 33
8 8 9 9 9 10 10 11 11 12 12 13 13 14 14 15 15 15 16 16 17 17 17 18 18 19 19 20 20 21 21 22 22 23 23 23 24 24 24 24 24 24 25 25 25 25 25 26 26 26 27 28 29 30 30 31 31 31 32 32 32 32 33 33 34 34 34 34 33
9 9 10 10 10 11 11 12 12 12 13 14 14 15 15 16 16 17 17 18 18 19 20 20 21 21 22 22 23 23 24 24 25 25 25 25 26 26 26 26 26 26 26 26 26 26 27 27 27 27 28 28 29 30 31 31 31 32 32 32 32 32 33 33 33 34 34 34 34
9 10 10 10 11 11 12 12 13 13 14 15 16 16 17 18 18 19 20 20 21 22 23 24 24 25 25 26 26 27 27 28 28 28 29 29 29 29 29 29 29 29 29 29 29 29 29 29 29 29 29 30 30 31 31 32 32 32 32 32 32 32 32 32 33 33 33 34 34
10 10 11 11 12 12 13 14 14 15 16 17 18 19 19 20 21 22 23 24 24 25 26 27 28 28 29 29 30 30 31 31 32 32 32 32 33 33 33 33 33 32 32 32 32 32 32 31 31 31 31 31 31 32 32 33 33 33 33 33 33 33 33 32 33 33 33 33 34
11 11 12 12 13 14 15 16 17 17 18 19 20 21 22 23 24 25 26 27 27 28 29 30 30 31 31 32 32 33 33 34 34 35 35 35 36 36 36 36 36 35 35 35 34 34 34 33 33 33 32 32 32 32 33 33 33 34 34 34 34 34 34 34 33 33 33 33 33
12 13 13 14 15 16 17 18 19 20 21 22 23 24 25 25 26 27 28 29 29 30 31 31 32 32 33 33 34 34 35 35 36 36 37 37 37 38 38 38 38 38 37 37 36 36 35 35 34 34 33 33 33 33 33 33 34 34 35 35 35 35 35 35 35 34 34 33 33
13 14 15 16 17 18 19 20 21 22 23 24 25 25 26 27 28 29 29 30 31 31 32 32 33 33 34 34 35 35 36 36 36 37 37 38 38 38 39 39 39 39 38 38 38 38 37 37 36 35 35 34 34 33 34 34 34 35 35 35 36 36 35 35 35 35 35 34 34
15 16 17 18 19 20 21 22 23 24 24 25 26 27 28 28 29 30 30 31 32 32 33 33 33 34 34 35 35 35 36 36 36 36 37 37 38 38 38 38 38 38 38 38 38 38 38 38 38 37 36 35 35 35 35 35 35 35 35 36 35 35 35 35 35 35 35 35 35
17 18 19 20 21 22 22 23 24 25 26 26 27 28 29 29 30 30 31 32 32 33 33 33 33 34 34 34 35 35 35 36 36 36 36 37 37 38 38 38 38 38 37 37 38 38 38 38 38 38 37 37 36 36 36 36 36 36 36 36 36 35 35 34 34 34 34 34 34
18 19 20 21 22 23 24 24 25 26 27 27 28 29 29 30 31 31 32 32 33 33 33 33 34 34 34 34 35 35 35 35 36 36 36 36 37 37 38 38 38 37 37 37 37 37 37 38 38 38 38 38 38 38 37 37 37 37 37 37 36 36 35 34 34 34 34 33 33
20 21 21 22 23 24 25 26 26 27 28 28 29 30 30 30 31 31 32 33 33 33 33 34 34 34 34 34 34 35 35 35 35 35 36 36 36 37 38 38 38 37 37 37 37 37 37 37 37 37 37 38 38 38 38 38 38 38 38 37 37 36 36 35 34 34 34 34 33
21 22 22 23 24 25 26 26 27 28 28 29 30 30 30 31 31 31 32 33 33 33 34 34 34 34 34 34 34 34 34 34 34 35 36 36 37 37 38 38 39 38 38 37 37 37 37 37 37 37 37 37 37 37 37 37 37 38 38 38 38 37 36 35 34 34 34 34 33
21 22 23 24 25 25 26 27 28 28 29 30 30 30 31 31 31 32 32 32 32 33 33 34 34 34 34 34 35 35 34 34 34 35 36 36 37 37 38 39 39 39 39 38 38 38 38 38 37 37 36 36 36 35 35 36 36 37 37 37 37 37 37 35 34 34 34 34 33
22 23 24 25 25 26 27 28 28 29 29 30 30 30 31 31 31 31 31 31 32 32 33 33 33 33 34 34 35 35 35 35 35 35 36 37 37 38 39 39 40 40 40 39 39 39 39 38 38 37 36 35 34 34 34 34 35 36 36 35 35 36 36 36 35 34 34 34 34
23 24 24 25 26 27 27 28 28 29 29 29 30 30 30 30 30 30 31 31 31 31 32 32 33 33 33 34 35 35 36 36 36 36 36 37 38 38 39 39 40 40 40 40 39 39 39 38 37 37 35 34 33 32 32 33 33 34 35 35 35 35 36 36 36 36 36 36 35
Wind_Direction
170 176 180 178 176 178 183 188 191 191 188 183 176 167 155 142 130 123 118 116 119 120 121 127 177 211 222 241 253 259 261 265 273 281 286 291 294 297 298 300 301 304 307 308 308 308 307 305 302 300 297 294 291 289 286 282 279 276 273 273 273 275 278 280 282 283 285 287 288
151 158 161 163 166 170 174 174 174 172 168 161 149 128 115 111 108 107 108 110 118 130 146 162 192 201 198 202 221 240 256 267 276 283 289 294 298 301 303 304 306 306 307 307 307 307 306 304 302 301 300 298 297 295 293 287 281 277 273 272 274 276 279 282 284 286 288 290 292
136 139 142 144 147 148 146 142 141 142 141 139 134 132 132 133 135 140 147 157 171 184 191 193 201 209 215 219 231 247 264 275 283 289 294 298 301 303 304 305 305 304 304 304 304 304 304 303 303 303 303 304 304 304 303 298 292 286 282 278 277 277 279 281 284 287 289 290 291
136 138 139 140 141 140 137 133 134 137 140 143 146 150 154 159 165 172 181 190 200 206 211 216 225 239 256 271 283 291 296 300 303 305 307 308 308 308 307 306 305 304 303 303 304 304 305 305 305 306 307 308 308 309 309 307 304 300 296 291 287 283 281 280 281 283 286 287 288
137 138 139 139 141 141 141 141 144 147 152 156 160 162 165 170 176 184 193 203 216 231 251 270 284 294 301 305 308 309 310 312 313 314 314 314 313 311 310 309 308 307 307 307 307 307 307 307 307 308 309 309 310 309 309 309 308 307 304 302 298 294 290 287 285 283 282 283 285
133 135 138 140 143 145 146 148 151 152 154 156 158 161 166 172 180 192 208 226 242 258 273 286 296 302 307 310 313 313 314 315 316 316 316 315 314 313 312 312 312 311 311 311 311 310 310 310 307 307 308 310 310 310 310 309 308 307 306 305 303 301 298 295 291 286 283 281 281
135 137 139 140 142 142 142 142 141 140 139 139 142 149 158 167 182 202 219 234 246 259 276 291 301 309 314 316 318 318 317 317 317 316 316 316 315 315 315 315 315 315 315 314 314 313 312 311 309 309 310 310 311 311 311 310 309 308 307 306 305 304 302 300 296 291 285 280 278
129 129 128 128 127 126 125 124 123 122 121 123 127 133 140 148 157 174 193 218 247 285 307 316 320 321 321 321 320 319 318 317 317 316 316 316 316 316 316 317 317 317 316 315 315 314 313 312 312 312 312 312 312 312 311 311 311 309 308 307 306 305 305 303 300 295 289 284 279
120 118 117 116 114 112 111 110 110 111 112 115 118 119 120 121 121 118 36 322 324 327 326 325 323 322 321 319 318 317 316 316 315 315 315 314 315 315 315 315 315 315 315 314 314 313 312 312 312 311 311 311 311 311 311 311 310 309 308 307 307 306 306 305 303 300 296 291 285
112 110 109 108 106 104 102 103 103 104 104 104 102 98 89 72 33 355 341 336 332 329 325 322 319 318 317 315 313 312 312 311 311 311 311 311 311 311 311 310 310 310 310 310 309 309 309 309 309 309 308 308 308 308 308 308 308 307 307 306 306 306 306 306 305 304 301 297 293
108 106 105 103 101 99 97 97 96 94 89 82 71 53 25 358 344 335 331 328 326 323 318 313 312 311 310 308 307 306 306 305 305 305 304 304 304 304 304 303 303 303 303 303 303 303 304 304 304 304 304 304 304 304 305 305 304 304 304 304 304 304 304 304 304 304 302 300 297
105 104 103 101 98 97 95 91 85 76 60 38 15 352 337 329 324 321 318 316 314 311 308 306 305 305 303 302 301 301 300 300 299 299 299 298 298 297 297 297 297 297 297 297 297 298 298 299 299 298 298 299 299 300 301 301 301 301 301 301 301 302 302 302 303 303 302 301 299
102 101 99 97 94 90 84 71 51 21 356 340 330 322 317 314 311 309 308 306 304 302 302 302 301 301 300 299 299 298 298 297 297 296 296 296 295 294 294 294 293 293 293 293 293 294 294 294 294 294 294 294 295 296 297 297 298 298 298 298 298 298 299 299 300 301 301 300 299
96 94 91 85 78 64 35 359 338 326 319 315 312 310 308 306 304 302 301 301 300 299 299 299 299 299 298 298 297 297 297 296 295 295 294 294 293 293 292 292 292 291 291 291 291 291 292 292 292 292 292 292 292 292 293 293 294 295 295 295 295 295 296 296 297 297 298 298 297
81 76 68 54 28 352 330 320 314 310 308 307 305 304 303 302 300 299 299 298 298 297 297 297 297 297 296 296 296 295 295 294 294 293 293 292 292 291 291 291 290 290 290 290 290 290 290 290 291 291 291 291 290 290 290 291 291 291 291 292 292 292 292 293 293 293 293 293 294
51 35 11 346 328 318 311 309 307 305 304 303 302 300 300 299 298 297 297 296 296 296 296 296 295 295 295 295 294 294 293 293 293 292 292 291 291 291 291 290 290 290 290 290 290 290 290 290 290 290 290 290 290 290 289 289 289 289 289 289 289 289 289 289 289 289 289 289 289
353 338 326 318 313 309 306 305 304 303 302 300 299 298 298 297 297 297 296 296 295 295 295 295 295 295 295 294 294 293 293 293 293 293 292 292 292 292 292 292 292 292 292 291 291 291 291 291 290 290 290 290 290 290 289 289 288 288 288 287 287 287 287 287 287 287 287 286 286
324 319 315 312 309 306 305 304 303 302 301 299 299 298 298 298 297 297 297 297 296 296 296 296 296 295 295 295 295 295 294 294 294 294 294 294 294 294 293 293 293 293 293 293 293 293 293 292 291 291 290 290 290 290 289 289 288 288 287 287 286 286 286 286 286 285 285 284 284
317 314 311 309 307 306 305 304 303 302 301 301 300 300 300 299 299 299 299 298 298 298 297 297 297 297 296 296 296 296 296 296 296 296 296 296 296 296 295 295 295 295 295 295 294 294 293 293 292 291 291 290 289 289 289 288 287 287 286 286 286 286 285 285 285 284 283 282 282
312 310 309 307 306 306 305 304 304 303 303 303 302 302 301 301 301 300 300 300 300 300 300 300 299 299 299 299 299 299 299 299 299 298 298 298 298 297 297 297 297 296 296 295 295 294 294 293 292 291 290 290 289 289 288 287 287 286 286 285 285 285 285 284 284 283 282 282 281
309 308 307 306 305 305 305 304 304 304 304 303 303 303 303 303 303 303 303 303 304 304 305 305 305 305 304 304 304 304 303 303 303 302 302 301 301 300 300 299 299 298 297 297 296 295 294 293 292 291 290 290 289 288 288 287 286 286 285 285 284 284 284 284 283 283 282 282 281
308 307 307 306 306 306 306 305 305 305 305 305 305 306 306 307 308 309 310 311 311 312 312 312 313 313 313 312 311 310 310 309 308 307 306 306 305 304 303 302 301 300 299 298 298 297 295 294 293 292 291 290 289 289 288 287 287 286 285 285 284 284 283 283 282 282 282 282 281
310 310 310 310 311 311 311 311 312 312 312 312 313 314 316 317 318 319 320 320 321 321 321 321 321 321 320 319 318 316 315 314 313 312 311 310 309 307 306 305 304 303 302 302 301 300 299 297 296 294 293 292 291 290 290 289 288 288 287 286 285 285 284 283 282 282 282 282 281
320 321 322 323 324 324 325 325 325 325 326 327 328 329 329 330 329 330 330 329 329 329 328 328 327 326 325 324 322 321 319 318 317 315 314 313 312 312 310 309 308 307 307 306 305 304 303 302 301 299 297 296 295 294 293 292 291 290 289 289 288 287 286 285 284 283 283 282 282
341 342 343 343 344 344 344 343 343 343 342 342 341 341 340 339 338 337 336 335 334 333 332 331 330 328 327 326 325 323 322 321 319 318 317 316 315 315 314 313 312 311 310 310 309 308 307 306 305 304 302 300 299 297 296 295 294 293 292 291 291 290 289 288 286 285 284 284 283
2 1 1 1 0 359 358 356 354 353 352 350 348 346 344 342 341 340 338 337 335 334 333 331 330 329 328 326 325 324 323 322 321 320 319 318 317 317 316 315 314 313 313 312 310 309 308 307 306 305 304 303 301 300 298 297 296 295 294 293 293 292 291 290 289 288 286 285 284
13 11 10 8 7 4 2 360 358 355 352 350 348 345 344 342 340 338 337 335 333 332 331 330 329 328 327 326 325 324 324 323 322 322 321 320 319 318 317 316 316 315 314 313 311 310 309 308 307 306 305 304 303 301 300 299 298 297 296 295 294 293 293 292 291 290 289 288 286
15 13 11 8 6 3 0 357 354 351 349 346 344 343 341 339 337 335 334 333 331 330 330 329 329 328 327 326 326 326 325 325 324 324 323 322 321 320 319 318 318 317 316 314 313 312 311 309 308 307 306 306 305 304 302 301 300 299 298 297 296 295 294 294 293 292 291 290 289
13 10 7 4 1 358 354 351 349 346 344 342 341 339 337 336 334 333 332 331 331 330 330 330 329 328 328 327 327 327 326 326 326 325 324 323 323 322 322 321 321 320 319 318 317 316 315 314 313 312 311 310 309 307 306 305 303 302 301 299 298 297 296 295 294 293 292 291 290
7 4 0 356 353 350 348 346 344 342 340 339 338 336 336 335 334 333 332 332 332 331 331 330 329 329 328 328 327 327 326 326 326 325 325 324 323 323 323 322 322 322 321 321 321 320 319 319 318 317 316 314 313 311 309 308 306 305 303 302 301 299 298 296 295 293 292 291 290
359 356 353 350 348 345 344 342 341 340 339 338 337 337 336 335 335 334 333 333 332 331 330 329 329 329 328 327 327 327 326 325 325 324 324 324 323 322 322 322 322 322 321 322 322 322 321 321 320 319 318 317 315 312 311 309 307 305 304 303 302 301 300 298 296 295 293 292 290
353 350 348 346 344 343 342 341 341 340 339 339 338 337 337 336 336 335 334 333 332 331 330 329 329 328 328 327 326 326 325 325 324 324 324 323 322 322 321 320 320 320 320 321 321 321 321 321 320 319 318 317 315 313 310 309 307 305 304 303 302 301 301 299 298 297 295 294 292
349 347 345 344 343 343 342 342 341 341 340 339 339 338 337 336 335 334 333 332 332 331 330 330 329 329 328 327 326 325 324 324 324 323 322 322 321 320 319 319 318 318 319 319 319 319 319 319 319 318 318 316 315 312 310 308 306 305 303 302 302 301 300 300 299 298 297 296 295
346 346 345 344 344 343 343 342 341 341 340 339 338 337 336 335 335 333 332 332 331 330 330 329 328 328 326 326 325 324 323 322 322 321 321 320 319 318 317 317 316 317 317 317 317 317 317 317 317 317 317 316 314 312 311 309 307 305 304 302 301 301 300 299 299 299 298 298 297
346 346 345 345 344 343 342 342 341 340 339 338 337 336 335 334 333 332 331 330 329 328 327 326 326 325 324 323 322 322 321 320 320 319 319 318 318 317 316 315 314 315 315 316 316 316 316 316 316 316 315 315 313 312 311 309 307 306 305 304 303 301 301 300 299 299 298 298 297
347 346 345 344 343 342 341 340 339 338 337 336 335 334 333 332 331 330 329 328 326 325 324 323 322 322 321 320 320 320 319 319 318 318 317 317 316 315 314 313 313 313 314 315 315 315 315 314 314 314 314 313 312 311 310 310 308 307 306 306 304 303 303 302 301 300 299 298 297
347 346 345 344 342 341 340 339 337 336 335 334 333 332 331 330 329 327 326 325 324 323 321 321 320 320 319 319 319 318 318 318 318 317 317 316 316 315 314 313 313 313 314 314 314 313 313 313 313 313 312 312 311 311 310 310 309 308 308 307 306 306 305 304 303 302 300 299 298
346 345 344 342 340 339 338 336 335 334 332 331 330 329 328 327 326 325 324 323 323 322 320 320 319 319 319 318 318 317 317 317 317 317 316 316 315 315 314 313 313 313 313 313 313 312 311 311 311 311 311 311 311 311 311 310 310 309 309 308 307 307 306 306 305 304 303 302 301
345 343 342 340 338 337 335 334 332 331 330 329 328 326 325 324 324 323 323 322 322 321 320 319 319 319 319 318 317 316 316 316 316 316 315 315 315 314 314 313 313 313 312 312 312 311 310 310 309 310 310 311 311 311 311 310 310 309 308 307 307 307 306 306 306 305 304 303 302
343 341 339 337 336 334 332 331 329 328 327 326 325 324 323 323 322 321 321 321 320 320 319 319 318 318 318 317 317 316 315 315 315 314 314 314 313 313 313 313 312 312 311 311 311 310 309 309 309 309 310 311 311 312 311 310 309 308 307 307 306 306 306 306 306 305 304 303 302
340 338 336 334 332 331 329 328 326 325 325 324 323 322 322 321 320 320 319 319 319 318 318 317 317 317 317 316 316 315 314 314 314 313 313 313 312 312 312 312 312 311 310 310 310 310 309 309 309 309 310 311 313 313 312 310 309 308 307 307 306 306 305 305 305 304 303 303 303
Height
1472 1474 1475 1476 1477 1478 1480 1481 1481 1482 1483 1484 1484 1485 1486 1486 1487 1487 1488 1488 1489 1489 1490 1491 1491 1490 1490 1490 1491 1491 1491 1491 1491 1491 1491 1491 1491 1491 1490 1490 1490 1489 1489 1488 1488 1487 1487 1487 1486 1486 1486 1486 1485 1485 1485 1485 1485 1486 1486 1486 1486 1486 1485 1485 1484 1484 1483 1483 1482
1472 1473 1475 1476 1477 1478 1479 1480 1481 1481 1482 1483 1484 1484 1485 1486 1486 1486 1487 1487 1488 1489 1489 1489 1489 1489 1489 1490 1490 1490 1490 1490 1490 1490 1490 1490 1490 1489 1489 1489 1488 1488 1488 1487 1487 1486 1486 1486 1485 1485 1485 1484 1484 1484 1484 1484 1484 1484 1484 1484 1484 1484 1483 1483 1482 1482 1481 1481 1480
1472 1473 1475 1476 1477 1478 1478 1479 1480 1481 1482 1482 1482 1483 1484 1485 1485 1485 1486 1486 1487 1488 1488 1488 1488 1487 1488 1488 1488 1488 1488 1488 1488 1488 1488 1488 1488 1488 1487 1487 1487 1487 1486 1486 1486 1485 1485 1484 1484 1484 1484 1483 1483 1483 1483 1483 1483 1483 1482 1482 1482 1482 1481 1481 1480 1480 1479 1479 1478
1472 1473 1474 1476 1476 1477 1478 1479 1479 1480 1480 1481 1481 1482 1483 1483 1484 1484 1485 1486 1486 1487 1487 1487 1487 1487 1487 1487 1487 1487 1487 1487 1487 1487 1487 1487 1486 1486 1486 1486 1486 1486 1485 1485 1484 1484 1484 1483 1483 1483 1482 1482 1482 1482 1482 1482 1481 1481 1481 1480 1480 1480 1479 1479 1478 1478 1477 1477 1476
1472 1473 1474 1475 1476 1476 1477 1477 1478 1479 1480 1480 1481 1482 1483 1483 1484 1485 1485 1486 1486 1487 1487 1487 1486 1486 1486 1486 1486 1486 1486 1486 1486 1486 1486 1486 1486 1486 1485 1485 1485 1484 1484 1483 1483 1482 1482 1482 1481 1481 1481 1481 1481 1481 1481 1480 1480 1479 1479 1478 1478 1477 1477 1476 1476 1476 1475 1475 1475
1472 1473 1474 1475 1476 1476 1477 1478 1478 1479 1480 1481 1481 1482 1483 1483 1484 1485 1485 1486 1486 1486 1486 1486 1486 1486 1485 1485 1485 1485 1485 1485 1485 1485 1485 1485 1485 1484 1484 1484 1483 1483 1482 1481 1481 1481 1481 1480 1480 1480 1480 1480 1479 1479 1479 1478 1478 1477 1477 1476 1476 1475 1475 1474 1474 1474 1473 1473 1473
1473 1474 1475 1475 1476 1477 1477 1478 1479 1479 1480 1481 1481 1482 1483 1483 1484 1484 1485 1485 1485 1485 1485 1485 1485 1485 1484 1484 1484 1484 1484 1484 1484 1484 1484 1483 1483 1483 1483 1482 1482 1481 1481 1480 1480 1479 1479 1479 1478 1478 1478 1478 1477 1477 1477 1476 1476 1475 1475 1474 1474 1473 1473 1472 1472 1471 1471 1471 1471
1474 1475 1475 1476 1476 1477 1477 1478 1479 1479 1480 1481 1481 1482 1482 1483 1484 1484 1484 1485 1485 1485 1484 1484 1484 1483 1483 1483 1483 1483 1483 1483 1483 1483 1482 1482 1482 1481 1481 1481 1480 1480 1479 1479 1478 1478 1478 1477 1477 1477 1476 1476 1476 1475 1475 1474 1474 1473 1472 1472 1471 1471 1471 1471 1470 1470 1469 1469 1468
1475 1475 1476 1476 1477 1477 1478 1478 1479 1479 1480 1481 1481 1482 1482 1483 1483 1483 1483 1484 1483 1483 1483 1483 1483 1482 1482 1482 1482 1482 1482 1482 1482 1482 1481 1481 1481 1480 1480 1479 1479 1479 1478 1478 1477 1477 1476 1476 1476 1476 1475 1475 1474 1473 1473 1472 1471 1471 1470 1470 1470 1469 1469 1468 1468 1467 1467 1466 1466
1475 1476 1476 1477 1477 1478 1478 1479 1479 1480 1480 1481 1481 1481 1482 1482 1482 1482 1482 1482 1482 1482 1482 1482 1482 1482 1482 1482 1482 1481 1481 1481 1481 1481 1480 1480 1479 1479 1478 1478 1477 1477 1477 1476 1476 1476 1476 1475 1475 1474 1474 1473 1472 1472 1471 1470 1470 1469 1468 1468 1467 1467 1467 1466 1466 1466 1465 1465 1464
1476 1476 1477 1477 1478 1478 1479 1479 1479 1480 1480 1480 1481 1481 1481 1481 1481 1481 1481 1481 1481 1481 1481 1481 1481 1481 1481 1481 1481 1481 1480 1480 1480 1479 1479 1478 1478 1477 1477 1476 1476 1476 1476 1475 1475 1474 1474 1474 1473 1472 1472 1471 1471 1470 1469 1468 1467 1467 1466 1466 1465 1465 1465 1465 1464 1464 1463 1463 1462
1476 1476 1477 1477 1478 1478 1479 1479 1479 1480 1480 1480 1480 1480 1481 1481 1481 1481 1481 1481 1481 1481 1481 1481 1480 1480 1480 1480 1480 1479 1479 1479 1478 1478 1477 1477 1476 1476 1475 1475 1474 1474 1473 1473 1473 1472 1472 1471 1471 1471 1470 1469 1469 1468 1467 1466 1465 1465 1464 1463 1463 1463 1463 1462 1462 1462 1461 1461 1460
1477 1477 1477 1478 1478 1479 1479 1479 1479 1479 1480 1480 1480 1480 1480 1480 1480 1480 1481 1481 1480 1480 1480 1480 1480 1479 1479 1479 1478 1478 1478 1477 1477 1476 1476 1475 1475 1474 1473 1473 1472 1472 1471 1471 1471 1470 1470 1469 1469 1468 1468 1467 1467 1466 1465 1464 1464 1463 1462 1461 1461 1461 1461 1461 1461 1460 1460 1459 1459
1477 1478 1478 1478 1479 1479 1479 1479 1479 1479 1479 1480 1480 1480 1480 1480 1480 1480 1480 1480 1480 1479 1479 1479 1479 1478 1478 1477 1477 1477 1476 1476 1475 1475 1474 1474 1473 1472 1472 1471 1471 1470 1470 1469 1469 1469 1468 1467 1467 1466 1466 1465 1465 1464 1464 1463 1462 1461 1461 1460 1460 1459 1459 1459 1459 1458 1458 1457 1457
1478 1478 1478 1479 1479 1479 1479 1479 1479 1479 1479 1479 1479 1479 1480 1479 1479 1479 1479 1479 1479 1479 1478 1478 1477 1477 1477 1476 1476 1475 1475 1474 1474 1473 1472 1472 1471 1471 1470 1470 1469 1468 1468 1467 1467 1467 1466 1466 1465 1465 1464 1463 1463 1462 1462 1461 1461 1460 1459 1459 1458 1457 1457 1457 1457 1456 1456 1456 1455
1478 1478 1478 1479 1479 1479 1479 1479 1479 1479 1479 1479 1479 1479 1479 1479 1479 1479 1478 1478 1478 1477 1477 1476 1476 1476 1475 1475 1474 1474 1473 1472 1472 1471 1471 1470 1469 1469 1468 1467 1467 1466 1466 1466 1465 1465 1465 1464 1464 1463 1462 1461 1461 1460 1460 1459 1458 1458 1457 1457 1456 1456 1456 1455 1455 1455 1454 1453 1453
1478 1478 1478 1478 1478 1478 1478 1478 1478 1478 1478 1478 1478 1478 1478 1478 1478 1477 1477 1477 1476 1476 1476 1475 1475 1474 1474 1473 1472 1472 1471 1471 1470 1469 1469 1468 1467 1467 1466 1466 1465 1465 1464 1464 1463 1463 1463 1462 1462 1461 1461 1460 1459 1458 1457 1457 1456 1456 1455 1454 1454 1454 1453 1453 1452 1452 1451 1451 1451
1478 1478 1478 1478 1478 1478 1478 1477 1477 1477 1477 1477 1477 1477 1477 1476 1476 1476 1476 1475 1475 1474 1474 1473 1473 1472 1472 1471 1471 1470 1469 1469 1468 1467 1467 1466 1466 1465 1464 1464 1463 1463 1462 1462 1461 1461 1461 1460 1460 1459 1458 1458 1457 1456 1455 1454 1454 1453 1452 1452 1451 1451 1451 1450 1450 1449 1449 1449 1448
1477 1477 1477 1477 1477 1477 1477 1476 1476 1476 1476 1476 1476 1476 1475 1475 1475 1474 1474 1473 1473 1473 1472 1472 1471 1471 1470 1470 1469 1468 1468 1467 1466 1466 1465 1465 1464 1463 1463 1462 1461 1461 1461 1460 1460 1459 1458 1458 1457 1457 1456 1455 1455 1454 1453 1452 1451 1451 1450 1449 1449 1448 1448 1447 1447 1447 1446 1446 1446
1476 1476 1476 1476 1476 1476 1476 1476 1475 1475 1475 1475 1475 1474 1474 1474 1473 1473 1472 1472 1471 1471 1471 1470 1470 1469 1469 1468 1467 1467 1466 1466 1465 1464 1464 1463 1462 1461 1461 1461 1460 1459 1459 1458 1458 1457 1456 1456 1455 1455 1454 1453 1452 1451 1450 1450 1449 1448 1447 1447 1446 1446 1445 1445 1444 1444 1443 1443 1443
1476 1476 1476 1476 1475 1475 1475 1475 1475 1474 1474 1474 1473 1473 1473 1472 1472 1471 1471 1471 1470 1470 1469 1469 1468 1467 1467 1466 1466 1465 1464 1464 1463 1462 1462 1461 1461 1460 1459 1459 1458 1458 1457 1457 1456 1455 1455 1454 1453 1452 1451 1451 1450 1449 1448 1447 1446 1446 1445 1444 1444 1443 1442 1442 1441 1441 1441 1440 1440
1475 1475 1475 1475 1475 1475 1474 1474 1474 1473 1473 1473 1472 1472 1472 1471 1471 1470 1470 1469 1469 1468 1468 1467 1466 1466 1465 1464 1464 1463 1462 1462 1461 1461 1460 1460 1459 1458 1458 1457 1456 1456 1455 1455 1454 1453 1452 1452 1451 1450 1449 1448 1447 1446 1446 1445 1444 1443 1442 1441 1441 1441 1440 1439 1439 1438 1438 1437 1437
1475 1475 1474 1474 1474 1474 1474 1473 1473 1473 1472 1472 1471 1471 1471 1470 1470 1469 1468 1468 1467 1467 1466 1465 1465 1464 1463 1463 1462 1461 1461 1460 1460 1459 1459 1458 1457 1457 1456 1456 1455 1454 1454 1453 1452 1451 1450 1450 1449 1448 1447 1446 1445 1444 1443 1442 1441 1440 1439 1439 1438 1437 1437 1436 1436 1436 1435 1434 1434
1474 1474 1474 1474 1473 1473 1473 1472 1472 1472 1471 1471 1470 1470 1469 1469 1468 1468 1467 1466 1466 1465 1465 1464 1463 1463 1462 1461 1461 1460 1460 1459 1458 1458 1457 1457 1456 1456 1455 1454 1453 1453 1452 1451 1451 1450 1448 1447 1446 1445 1444 1443 1442 1441 1440 1439 1438 1437 1436 1436 1435 1434 1433 1433 1433 1432 1432 1431 1431
1473 1473 1473 1473 1472 1472 1472 1471 1471 1471 1470 1470 1469 1469 1468 1468 1467 1466 1466 1466 1465 1464 1464 1463 1463 1462 1461 1461 1460 1459 1458 1458 1457 1456 1456 1456 1455 1454 1453 1452 1452 1451 1450 1449 1449 1448 1447 1446 1444 1443 1442 1441 1440 1438 1437 1436 1436 1435 1434 1432 1431 1431 1430 1429 1429 1429 1429 1428 1428
1472 1472 1472 1472 1471 1471 1471 1470 1470 1469 1469 1468 1468 1468 1467 1466 1466 1466 1465 1465 1464 1463 1463 1462 1462 1461 1461 1460 1459 1458 1458 1457 1456 1455 1455 1454 1453 1452 1452 1451 1450 1449 1448 1448 1447 1446 1445 1444 1443 1441 1440 1438 1437 1436 1435 1434 1433 1432 1431 1430 1429 1428 1427 1426 1426 1425 1425 1425 1425
1472 1471 1471 1471 1471 1470 1470 1469 1469 1469 1468 1468 1467 1467 1466 1466 1465 1465 1464 1464 1463 1462 1462 1461 1461 1460 1459 1459 1458 1457 1456 1456 1455 1454 1453 1452 1451 1451 1450 1449 1448 1447 1446 1446 1445 1444 1443 1442 1441 1440 1438 1436 1435 1433 1432 1431 1430 1429 1428 1427 1426 1425 1424 1423 1422 1422 1421 1421 1421
1471 1471 1471 1470 1470 1470 1469 1469 1468 1468 1467 1467 1466 1466 1466 1465 1464 1464 1463 1463 1462 1461 1461 1460 1459 1458 1458 1457 1456 1455 1455 1454 1453 1452 1451 1450 1450 1449 1448 1447 1446 1445 1444 1443 1442 1441 1441 1439 1438 1437 1436 1434 1432 1431 1429 1428 1427 1426 1425 1424 1423 1422 1421 1421 1420 1419 1418 1418 1418
1471 1470 1470 1470 1469 1469 1468 1468 1467 1467 1466 1466 1466 1465 1464 1464 1463 1462 1462 1461 1460 1460 1459 1458 1457 1456 1456 1455 1454 1453 1452 1451 1450 1449 1448 1447 1446 1446 1445 1444 1443 1442 1441 1441 1439 1438 1437 1436 1435 1434 1433 1431 1430 1428 1426 1425 1424 1423 1422 1421 1421 1420 1419 1418 1417 1417 1416 1415 1415
1470 1470 1469 1469 1469 1468 1468 1467 1466 1466 1466 1465 1464 1464 1463 1462 1461 1461 1460 1459 1458 1457 1456 1455 1455 1454 1453 1451 1451 1450 1449 1448 1447 1446 1445 1444 1443 1442 1441 1441 1440 1439 1438 1437 1436 1435 1434 1433 1431 1430 1429 1428 1426 1425 1423 1422 1421 1420 1419 1418 1417 1417 1416 1416 1415 1414 1414 1413 1412
1469 1469 1469 1468 1468 1467 1466 1466 1466 1465 1464 1463 1463 1462 1461 1460 1459 1458 1457 1456 1456 1455 1454 1453 1452 1451 1450 1449 1448 1447 1446 1445 1444 1443 1442 1441 1440 1439 1438 1437 1436 1436 1435 1434 1433 1432 1431 1430 1429 1427 1426 1425 1423 1422 1421 1419 1418 1417 1416 1415 1414 1414 1413 1413 1412 1411 1411 1411 1410
1469 1468 1468 1467 1467 1466 1466 1465 1464 1463 1462 1462 1461 1460 1459 1458 1457 1456 1455 1454 1454 1453 1451 1451 1450 1449 1447 1446 1446 1445 1444 1443 1441 1441 1439 1438 1437 1436 1435 1434 1434 1433 1432 1431 1430 1429 1428 1427 1426 1425 1424 1422 1421 1420 1418 1416 1415 1414 1413 1412 1411 1411 1410 1409 1409 1408 1408 1407 1407
1468 1467 1467 1466 1466 1465 1464 1463 1462 1461 1461 1460 1459 1458 1457 1456 1455 1454 1453 1452 1451 1450 1449 1448 1447 1446 1445 1444 1443 1442 1441 1441 1440 1438 1437 1436 1435 1434 1433 1432 1431 1431 1430 1429 1428 1427 1426 1425 1424 1423 1421 1420 1418 1417 1416 1414 1413 1411 1410 1409 1408 1408 1407 1406 1406 1405 1404 1404 1403
1467 1466 1466 1465 1464 1463 1462 1461 1461 1460 1459 1458 1457 1456 1455 1454 1453 1452 1451 1450 1449 1448 1447 1446 1446 1445 1444 1443 1441 1441 1440 1439 1438 1437 1436 1434 1433 1432 1431 1430 1429 1429 1428 1427 1426 1425 1424 1422 1421 1420 1419 1417 1416 1414 1413 1411 1410 1409 1407 1406 1406 1405 1404 1404 1403 1402 1401 1401 1400
1466 1465 1464 1463 1462 1461 1461 1460 1459 1458 1457 1456 1456 1455 1454 1452 1451 1451 1450 1449 1448 1447 1446 1445 1444 1443 1442 1441 1441 1440 1438 1437 1436 1435 1434 1433 1431 1430 1429 1428 1428 1427 1426 1426 1424 1423 1422 1420 1419 1418 1416 1415 1413 1411 1410 1408 1407 1406 1404 1403 1402 1402 1401 1401 1400 1399 1398 1398 1397
1464 1463 1462 1461 1461 1460 1459 1458 1457 1456 1456 1455 1454 1453 1452 1451 1450 1449 1448 1447 1446 1446 1445 1444 1443 1442 1441 1440 1439 1438 1437 1436 1435 1433 1432 1431 1430 1428 1427 1426 1426 1425 1425 1424 1422 1421 1420 1418 1417 1416 1414 1412 1410 1409 1407 1406 1404 1402 1401 1400 1399 1399 1398 1398 1397 1396 1396 1395 1394
1462 1462 1461 1460 1459 1458 1457 1457 1456 1455 1454 1453 1452 1451 1451 1450 1449 1448 1447 1446 1445 1444 1443 1442 1442 1441 1440 1438 1437 1436 1436 1434 1433 1431 1430 1429 1428 1426 1425 1424 1423 1423 1422 1421 1420 1419 1418 1416 1415 1413 1411 1410 1407 1406 1404 1402 1401 1399 1398 1397 1396 1396 1395 1395 1394 1393 1392 1392 1391
1461 1460 1460 1459 1458 1457 1456 1455 1454 1454 1453 1452 1451 1450 1449 1449 1448 1446 1446 1444 1443 1442 1441 1440 1440 1439 1437 1436 1435 1434 1434 1433 1431 1430 1428 1427 1426 1424 1423 1421 1420 1420 1420 1419 1418 1417 1416 1414 1413 1411 1410 1407 1405 1403 1402 1400 1398 1397 1396 1394 1393 1392 1392 1391 1391 1390 1389 1389 1388
1460 1459 1458 1457 1456 1456 1455 1454 1453 1452 1451 1451 1450 1449 1448 1447 1446 1445 1444 1443 1442 1441 1440 1438 1438 1437 1436 1435 1433 1432 1431 1431 1430 1429 1427 1425 1424 1422 1421 1419 1418 1417 1417 1416 1416 1414 1413 1411 1410 1409 1407 1406 1403 1401 1400 1398 1396 1395 1393 1392 1391 1390 1389 1388 1388 1387 1386 1386 1386
1459 1458 1457 1456 1455 1455 1454 1453 1452 1451 1451 1450 1449 1448 1447 1446 1445 1444 1443 1442 1441 1440 1438 1437 1436 1435 1434 1433 1431 1430 1429 1428 1428 1427 1425 1424 1422 1421 1419 1418 1416 1415 1414 1414 1413 1411 1410 1409 1408 1406 1405 1403 1401 1400 1398 1396 1394 1392 1391 1390 1389 1387 1386 1385 1385 1385 1383 1382 1382
1457 1457 1456 1455 1454 1453 1453 1452 1451 1450 1450 1449 1447 1446 1446 1445 1444 1443 1441 1441 1439 1438 1437 1436 1435 1434 1432 1431 1430 1428 1427 1426 1425 1425 1423 1422 1420 1419 1417 1416 1414 1413 1412 1411 1410 1409 1407 1406 1405 1404 1403 1401 1399 1398 1396 1394 1392 1391 1389 1388 1387 1386 1384 1383 1382 1381 1381 1380 1379